sat.trackr.live / text

‹ back to catalog

LEMUR-2-TOMATOKECHUP

NORAD 60471 · 2024-149D

PAYLOAD ACTIVE UNKNOWN

§ Identity

Operator
Country
US
Launch date
2024-08-16
Launch site
AFWTR
Launch vehicle
Mass (kg)
RCS (m²)

Purposes: earth_obs

External: N2YO · Heavens-Above · Gunter

§ Orbital elements

Epoch: 2026-05-24T23:26:45.445632Z

Period
93.78 min
Inclination
97.3795°
Eccentricity
0.0000917
Mean motion
15.35476557 rev/d
Perigee alt
458.9 km
Apogee alt
460.1 km
Semi-major
6,837.6 km
B*
2.9518e-4
RAAN
226.9743°
Arg perigee
33.5916°
Mean anomaly
326.5386°
Rev number
9,860

§ Raw data

LEMUR-2-TOMATOKECHUP1 60471U 24149D   26144.97691488  .00010097  00000+0  29518-3 0  99912 60471  97.3795 226.9743 0000917  33.5916 326.5386 15.35476557 98601

JSON: /api/v1/satellites/60471 · /tle

For live sub-satellite position, see the globe view (requires WebGL).

§ Visibility from observer

Set your observer location to see the next 7 days of passes ≥ 10°. The values pass through the URL so the page stays shareable.

No JS? Fill the form by hand. The geolocation button needs JavaScript.

§ Radio — SatNOGS DB

ModeDescriptionDownlinkUplink
FM Mode U - Transmitter 402.790 MHz

1 transmitter · refreshed weekly from db.satnogs.org